Temp_Advection
nan nan nan nan nan nan nan nan nan nan nan nan nan nan nan nan nan nan nan nan nan nan nan nan nan nan nan nan nan nan nan nan nan nan nan nan nan nan nan nan nan nan nan
nan 0 -0 0 0 0 0 -0 0 0 0 -0 -0 0 0 0 0 0 0 -0 -0 0 -0 -0 -0 -0 -0 -0 -0 -0 -0 -0 -0 -0 -0 -0 -0 -0 -0 -0 -0 -0 nan
nan 0 0 -0 0 0 -0 -0 -0 -0 0 -0 0 0 0 0 0 0 0 -0 0 0 0 0 -0 -0 -0 -0 -0 -0 -0 -0 -0 -0 -0 -0 -0 -0 -0 -0 -0 0 nan
nan 0 0 0 0 -0 -0 0 0 -0 0 -0 -0 0 0 0 0 0 -0 0 0 0 -0 -0 -0 -0 -0 -0 -0 -0 -0 -0 -0 -0 -0 -0 -0 -0 -0 -0 -0 -0 nan
nan 0 -0 0 -0 -0 0 0 0 -0 -0 0 0 0 0 0 0 0 0 0 0 0 0 0 0 -0 -0 0 -0 -0 -0 -0 -0 -0 -0 -0 -0 -0 -0 -0 -0 -0 nan
nan 0 0 0 -0 -0 0 0 0 -0 -0 0 0 0 0 0 0 0 0 0 0 -0 -0 0 0 0 0 0 0 -0 -0 -0 -0 -0 -0 -0 -0 -0 -0 -0 -0 -0 nan
nan 0 0 0 0 0 0 0 -0 0 0 -0 0 0 -0 -0 0 0 0 0 0 0 0 -0 -0 -0 0 0 0 0 -0 -0 -0 0 0 0 -0 -0 -0 -0 -0 -0 nan
nan 0 0 0 0 0 0 0 0 0 0 0 0 0 0 -0 -0 -0 0 0 0 0 0 0 0 -0 0 0 0 0 -0 0 0 0 0 -0 -0 -0 -0 0 -0 -0 nan
nan 0 0 0 0 0 0 0 0 0 0 0 0 0 0 0 0 0 0 -0 1 0 0 1 0 -0 0 0 0 0 0 0 0 0 -0 -0 0 0 -0 -0 -0 -0 nan
nan 1 0 1 0 0 0 0 0 0 0 0 0 0 0 0 0 0 0 0 1 0 0 0 0 0 0 0 0 0 0 0 0 0 -0 -0 0 0 -0 -0 -0 -0 nan
nan 0 0 0 0 0 0 0 0 0 -0 -0 0 0 0 0 0 1 0 0 0 0 1 0 0 0 0 1 1 1 1 1 0 0 0 -0 -0 -0 0 0 -0 -0 nan
nan 0 0 0 0 0 1 0 0 0 0 -0 0 0 0 0 0 1 0 0 -0 0 0 0 0 0 0 0 0 0 0 0 0 0 0 0 -0 -0 -0 -0 -0 -0 nan
nan 0 0 0 0 0 0 0 0 0 0 0 0 0 0 1 0 0 0 0 0 0 0 0 0 -0 0 0 -0 -0 -0 -0 -0 -0 -0 0 -0 -0 -0 -0 -0 -0 nan
nan 0 0 0 0 0 0 0 0 0 0 0 0 0 0 0 0 0 0 0 0 0 0 0 0 0 0 0 0 -0 -0 -0 -0 -0 -0 -0 -0 -0 -0 -0 -0 -0 nan
nan 0 0 0 0 0 0 0 0 0 0 0 0 0 0 0 0 0 0 0 0 -0 -0 -0 0 -0 -0 0 0 -0 -0 0 -0 -0 -1 -1 -0 -0 -0 -0 -0 -0 nan
nan 0 0 0 0 0 0 0 0 0 0 0 0 0 0 0 0 0 0 0 0 0 -0 -0 -0 0 0 -0 -0 -0 -0 -0 -0 -0 -0 -0 -1 -1 -1 -0 -0 -0 nan
nan 0 0 0 0 0 0 0 0 0 0 0 0 0 0 0 0 0 0 0 0 0 0 0 -0 -0 -0 -0 0 -0 -0 -0 -0 -0 -0 -0 -0 -0 -0 -0 -0 -1 nan
nan 0 0 0 0 0 0 0 0 0 0 0 0 0 0 0 0 0 0 0 0 0 0 0 0 -0 -0 -0 -0 -0 -0 -0 -0 -0 -0 -0 -0 -0 -0 -0 -0 -0 nan
nan 0 0 0 0 0 0 0 0 0 0 0 0 0 0 0 0 0 0 0 0 -0 0 0 -0 -0 -0 -0 -0 -0 -0 -0 -0 -0 -0 -0 -0 -0 -0 -1 -1 -0 nan
nan 0 0 0 0 0 0 0 0 0 0 0 0 0 0 0 0 0 0 0 -0 0 0 0 -0 -0 -0 -0 -0 -0 -0 -0 -0 -0 -0 -0 -0 -0 -0 -1 -1 -1 nan
nan 0 0 0 0 0 0 0 0 0 0 0 0 0 0 0 0 0 -0 0 0 0 0 -0 -0 -0 -0 -0 -0 -0 -1 -0 -0 -0 -0 -0 -0 -0 -0 -0 -0 -1 nan
nan 0 0 0 0 -0 0 0 0 0 0 0 0 -0 0 -0 -0 -0 -0 -0 -0 0 0 -0 -0 -0 -0 -0 -0 -0 -1 -1 -0 -1 -1 -0 -0 -0 -0 -0 -0 -1 nan
nan -0 -0 -0 0 -0 -0 0 -0 -0 -0 0 0 0 -0 -0 -0 -0 -0 -0 -0 -0 -0 -0 -0 -0 -0 -0 -0 -0 -0 -1 -1 -1 -2 -1 -0 -0 -0 -0 -1 -1 nan
nan -0 -0 -0 -0 -0 -0 -0 -0 0 0 -0 -0 -0 -0 -0 -0 0 -0 -0 -0 -0 0 -0 -0 -0 -0 -0 -0 -0 -0 -0 -0 -0 -1 -2 -1 -1 -0 -0 -0 -0 nan
nan -0 -0 -0 -0 0 -0 -0 -0 -0 -0 0 0 0 -0 -0 -0 -0 0 0 -0 -0 -0 0 0 0 -0 -0 -0 -0 -0 -0 -0 -0 -0 -1 -1 -2 -1 -0 -0 -0 nan
nan nan nan nan nan nan nan nan nan nan nan nan nan nan nan nan nan nan nan nan nan nan nan nan nan nan nan nan nan nan nan nan nan nan nan nan nan nan nan nan nan nan nan
Wind_Speed
16 14 12 16 13 14 12 11 10 12 11 8 7 10 9 8 5 2 4 3 2 3 4 5 6 7 8 8 10 11 12 13 11 10 9 9 11 12 13 12 13 13 14
16 10 1 12 16 18 14 15 13 14 13 12 9 8 12 10 6 5 1 1 1 0 2 4 3 5 9 4 7 7 9 10 11 11 10 9 9 8 10 11 12 12 12
9 7 5 1 10 14 10 11 9 19 14 12 13 9 12 12 9 5 2 5 5 4 3 3 2 4 4 7 6 7 7 8 9 10 10 9 9 9 8 8 9 10 10
4 1 8 4 4 1 7 8 13 14 12 10 15 17 14 14 14 12 11 13 10 6 5 6 6 6 6 5 5 4 5 6 6 7 7 8 9 9 9 8 7 7 7
1 3 3 4 4 7 7 7 6 11 14 15 14 17 16 16 16 16 15 14 14 13 11 10 9 10 8 6 4 4 6 5 6 6 6 6 6 7 7 7 8 8 7
8 8 6 9 8 5 9 14 10 6 10 13 15 16 18 15 24 21 18 16 15 17 17 16 16 15 13 13 8 7 4 5 6 6 6 4 3 4 5 4 5 6 6
16 16 13 14 14 11 12 13 11 13 7 6 8 11 15 16 15 19 14 19 16 18 19 17 19 16 15 14 12 10 8 6 5 7 5 4 2 2 1 3 4 4 5
17 20 18 20 17 14 10 8 12 13 11 9 4 5 4 9 17 19 20 21 18 21 22 22 20 20 17 16 15 13 11 11 5 7 6 5 5 5 8 7 7 7 8
18 20 20 22 20 16 14 12 9 9 13 10 11 9 6 6 4 8 15 22 27 25 23 22 17 20 20 19 18 17 15 13 14 12 10 10 10 12 11 11 11 11 11
18 19 22 23 22 19 15 14 13 12 13 11 11 11 12 12 8 7 13 14 19 22 21 22 23 17 20 21 20 20 19 17 15 17 21 19 16 16 16 16 17 18 18
17 18 19 20 19 19 17 15 14 15 15 14 15 13 10 12 12 11 7 12 15 17 21 19 17 16 16 19 19 21 20 17 16 17 19 18 20 19 19 19 20 21 22
13 15 16 16 18 18 17 16 15 15 14 14 15 16 14 10 11 12 9 10 10 13 18 18 12 10 9 10 13 13 14 13 13 17 20 21 21 21 21 23 24 25 26
10 9 9 10 11 13 14 15 16 15 15 15 15 14 14 14 12 11 12 10 8 10 12 15 18 20 21 16 11 8 8 10 14 16 20 21 20 21 22 23 24 24 24
7 8 7 6 6 7 9 11 12 13 13 14 13 13 13 13 13 11 11 11 9 10 11 11 14 15 15 16 17 16 13 12 15 17 17 20 20 20 21 22 23 24 24
7 7 6 6 5 6 6 7 8 9 9 11 11 12 12 11 10 10 9 10 8 7 6 8 10 12 13 14 14 15 16 15 15 19 19 19 22 21 21 22 22 23 23
5 5 5 5 5 5 5 6 6 6 7 7 8 8 9 8 8 7 8 9 9 9 6 7 7 8 12 13 14 16 16 18 21 19 20 18 22 26 24 21 21 22 22
5 5 4 4 5 5 5 5 5 5 6 6 6 6 6 7 7 7 8 9 9 10 12 15 14 12 12 13 13 13 14 14 17 19 20 20 20 21 23 22 21 21 21
6 5 4 4 4 3 3 4 3 3 4 4 4 4 4 6 6 7 7 8 9 10 11 12 14 12 11 13 13 14 15 15 16 16 17 16 17 18 19 20 20 21 21
5 6 5 5 4 4 3 3 2 3 3 2 3 3 4 5 5 6 6 7 8 9 9 10 13 12 11 11 12 13 12 13 14 15 16 15 16 16 17 19 20 21 22
6 6 6 5 5 4 3 3 3 3 2 2 3 3 4 5 5 5 6 6 6 7 7 8 9 9 9 9 10 10 9 11 12 13 14 15 15 16 18 21 22 22 23
6 6 5 5 5 5 5 4 3 3 3 3 3 3 3 4 5 5 5 5 5 6 6 6 7 7 8 9 10 11 12 12 14 14 12 12 16 16 17 18 19 21 22
7 7 6 6 5 6 4 5 5 5 4 4 4 4 4 5 5 5 6 6 6 6 7 7 7 8 9 10 11 13 14 15 16 15 19 16 17 17 17 18 19 20 21
10 10 10 9 9 8 8 8 8 8 8 8 7 7 7 8 7 8 8 8 8 9 9 9 9 10 11 12 13 14 15 16 18 18 21 19 19 17 17 18 20 20 21
13 13 13 13 13 13 14 14 14 14 14 13 13 13 13 12 12 12 11 11 11 11 11 10 11 11 12 13 14 16 17 18 18 18 18 22 21 19 18 19 18 16 12
17 17 16 16 16 15 15 15 16 16 17 17 17 17 16 16 16 17 15 15 15 14 14 13 14 14 14 15 15 15 15 17 17 15 18 18 19 24 21 16 11 14 23
17 19 20 20 20 20 19 18 18 19 18 19 19 19 19 18 17 17 18 16 16 16 15 16 16 14 14 14 15 15 14 13 14 14 14 18 20 21 17 10 16 20 19
Wind_Direction
219 213 225 227 204 201 203 200 195 180 194 200 183 177 140 156 167 90 4 2 59 79 77 64 59 52 49 49 47 48 51 53 55 58 60 60 57 57 58 56 59 59 58
169 147 40 227 215 229 232 234 211 197 196 207 220 185 163 183 192 230 197 47 348 111 78 45 41 57 43 37 40 44 44 47 50 51 55 56 56 57 58 56 57 62 64
182 118 108 83 221 225 217 233 255 236 234 239 228 216 194 185 196 213 253 260 264 243 224 258 318 337 4 43 44 38 31 32 38 43 47 49 51 52 54 56 53 55 59
44 127 175 188 255 247 232 241 248 257 233 259 252 239 222 214 208 217 235 261 271 262 287 281 283 296 306 310 323 359 16 15 18 22 30 38 44 46 46 47 47 44 48
150 97 163 200 219 245 241 259 225 234 238 253 263 254 252 243 226 218 222 228 249 256 261 272 283 292 295 277 297 323 318 328 334 342 353 5 20 26 32 35 40 41 39
231 204 215 244 232 244 264 249 243 243 240 230 229 246 250 256 238 245 224 226 233 245 256 261 264 269 278 290 280 277 299 309 306 306 316 326 19 42 28 32 25 32 30
204 196 199 208 217 220 225 241 248 253 229 245 236 237 246 250 253 254 244 235 231 239 247 253 261 260 261 272 276 285 282 289 314 287 259 254 284 298 355 64 51 29 4
206 208 213 218 226 224 238 252 255 248 229 171 179 162 231 263 253 256 257 259 255 247 251 244 245 254 256 258 261 262 266 275 174 180 234 255 296 314 303 307 292 303 313
210 219 220 215 232 228 221 237 248 249 235 222 194 197 209 218 261 265 250 256 258 254 248 248 232 241 248 252 252 255 248 245 240 246 249 258 275 294 294 299 303 300 296
222 218 219 224 235 239 234 237 243 235 225 250 251 232 225 222 209 243 250 252 252 247 241 241 242 229 233 242 243 247 239 234 241 255 263 268 270 277 287 286 285 293 295
226 226 223 224 231 238 244 243 242 248 248 245 249 250 241 246 247 237 261 235 231 243 246 239 239 233 220 219 215 220 217 223 235 254 265 270 268 277 273 280 281 285 285
223 225 225 226 229 231 233 242 239 242 245 246 243 254 250 258 244 235 256 268 253 234 236 233 237 229 232 224 220 224 224 230 244 257 267 274 281 280 279 280 282 287 288
211 220 219 222 229 231 230 232 237 237 238 241 243 243 246 245 248 246 242 251 258 230 226 237 241 248 251 259 260 257 262 265 267 267 274 278 283 286 287 288 289 289 291
204 214 213 208 211 219 225 229 231 231 232 236 236 236 238 239 238 243 240 249 245 257 238 228 232 240 246 254 254 255 263 264 274 277 279 283 290 291 289 289 292 292 293
202 202 207 208 211 209 202 213 218 223 221 226 228 234 232 235 235 234 225 230 241 244 268 262 252 252 249 247 246 252 252 260 266 281 290 296 301 300 296 294 293 293 294
193 196 201 193 209 210 202 204 202 205 210 219 223 226 233 230 228 226 235 232 233 233 245 258 261 273 275 267 263 268 277 277 278 283 286 292 301 303 301 298 295 294 295
198 197 186 186 196 194 199 199 198 202 204 210 214 219 221 227 231 227 231 235 239 246 251 260 272 270 270 274 284 284 281 281 282 287 288 285 284 282 285 291 292 293 292
182 183 188 191 188 187 187 190 189 197 202 205 213 223 223 233 232 234 230 234 238 242 246 252 267 278 279 281 281 283 284 286 288 287 282 289 288 287 289 291 293 293 293
188 184 185 186 182 181 182 189 191 196 204 201 213 221 230 239 238 238 238 240 241 245 246 251 260 273 280 276 278 285 293 294 296 295 296 295 293 291 293 293 294 295 299
201 204 200 198 199 198 197 197 192 195 203 195 204 211 225 239 244 241 241 244 246 247 249 249 259 271 281 287 293 295 290 297 297 296 299 300 300 300 303 304 301 301 300
197 200 201 202 199 197 204 208 218 216 221 220 230 235 237 241 244 246 252 253 252 253 255 259 268 281 291 297 304 311 312 311 310 307 302 300 300 301 299 299 302 302 301
214 212 212 215 214 222 217 221 220 223 219 228 239 245 256 261 262 260 257 260 265 266 266 267 276 284 291 302 306 310 313 315 320 314 306 309 308 307 304 305 303 302 300
241 240 238 238 240 244 248 248 248 248 251 247 249 255 260 266 265 269 270 270 267 270 276 280 281 287 293 299 306 310 312 314 312 317 309 309 312 311 311 309 307 305 304
255 255 254 255 255 254 254 254 255 255 254 256 258 260 261 260 265 265 266 267 268 268 267 275 280 284 288 293 298 302 306 305 308 313 313 313 315 314 318 315 311 310 315
259 259 259 258 258 259 260 260 258 256 255 255 255 257 262 264 263 266 264 265 267 270 272 271 274 277 281 287 291 295 296 299 305 310 309 311 315 316 322 319 321 331 325
263 262 262 262 261 259 258 261 263 265 261 258 254 254 258 262 264 262 266 262 265 266 267 271 272 274 278 283 288 292 296 300 303 310 301 310 316 324 328 314 319 322 322
Height
1537 1540 1542 1545 1547 1549 1551 1553 1555 1556 1559 1559 1559 1563 1563 1565 1566 1568 1569 1569 1570 1571 1571 1572 1571 1571 1571 1571 1570 1570 1569 1568 1567 1566 1566 1565 1565 1564 1563 1563 1562 1561 1560
1534 1536 1540 1541 1544 1548 1550 1553 1554 1556 1557 1559 1560 1561 1562 1564 1565 1566 1569 1570 1571 1571 1572 1572 1573 1572 1572 1572 1572 1572 1572 1571 1569 1568 1567 1567 1566 1565 1565 1565 1564 1563 1562
1532 1533 1536 1539 1541 1544 1548 1550 1552 1554 1556 1558 1559 1560 1562 1563 1564 1566 1568 1571 1571 1571 1571 1573 1573 1573 1573 1573 1573 1573 1573 1573 1572 1570 1569 1568 1567 1567 1566 1565 1566 1565 1564
1530 1532 1535 1539 1540 1542 1544 1545 1549 1551 1553 1555 1557 1558 1561 1562 1563 1565 1566 1570 1571 1572 1572 1572 1573 1573 1574 1574 1574 1574 1574 1574 1573 1572 1571 1569 1569 1568 1568 1567 1566 1566 1565
1528 1527 1531 1535 1537 1541 1542 1543 1544 1548 1548 1551 1553 1555 1557 1559 1561 1561 1564 1566 1569 1571 1572 1573 1572 1572 1573 1573 1573 1574 1574 1574 1573 1573 1572 1571 1570 1570 1569 1568 1568 1567 1566
1523 1527 1531 1534 1537 1537 1536 1541 1543 1545 1545 1546 1548 1552 1554 1556 1559 1560 1561 1563 1565 1568 1570 1570 1571 1572 1572 1573 1573 1573 1573 1573 1573 1572 1572 1572 1570 1569 1569 1568 1569 1568 1567
1522 1523 1527 1532 1535 1533 1533 1537 1538 1542 1543 1544 1545 1548 1550 1553 1555 1557 1556 1559 1561 1563 1566 1566 1567 1568 1569 1571 1572 1572 1572 1572 1571 1571 1571 1571 1571 1570 1570 1569 1568 1568 1568
1520 1524 1526 1530 1532 1530 1530 1534 1537 1540 1541 1539 1542 1543 1548 1550 1550 1553 1553 1556 1558 1559 1562 1563 1564 1565 1566 1567 1569 1570 1570 1572 1571 1569 1569 1570 1570 1569 1569 1568 1568 1568 1567
1520 1522 1524 1527 1530 1529 1527 1531 1533 1536 1539 1539 1537 1539 1543 1543 1545 1548 1549 1550 1554 1557 1557 1559 1558 1560 1562 1562 1564 1566 1566 1568 1568 1569 1568 1568 1569 1568 1567 1567 1567 1566 1565
1519 1520 1521 1524 1526 1526 1523 1527 1531 1534 1535 1537 1539 1537 1537 1540 1540 1544 1545 1546 1548 1551 1551 1554 1556 1554 1556 1558 1558 1560 1561 1563 1564 1566 1566 1566 1566 1566 1566 1565 1564 1563 1563
1518 1519 1519 1521 1522 1522 1521 1525 1527 1531 1532 1533 1535 1537 1536 1537 1537 1540 1543 1544 1544 1541 1547 1549 1552 1552 1551 1552 1552 1555 1556 1557 1559 1561 1562 1563 1563 1562 1562 1561 1560 1558 1558
1515 1516 1515 1516 1518 1519 1519 1522 1525 1527 1529 1530 1531 1533 1533 1535 1535 1536 1541 1542 1541 1538 1541 1544 1549 1549 1549 1549 1549 1551 1552 1553 1554 1557 1558 1559 1559 1558 1557 1557 1555 1554 1552
1512 1513 1512 1513 1515 1516 1516 1518 1523 1524 1525 1528 1528 1530 1532 1533 1535 1534 1536 1539 1540 1540 1540 1541 1544 1545 1546 1547 1546 1547 1548 1549 1551 1552 1553 1554 1553 1554 1552 1553 1550 1548 1547
1508 1512 1511 1511 1513 1514 1514 1517 1520 1521 1523 1525 1526 1527 1529 1531 1531 1533 1534 1537 1539 1540 1540 1540 1541 1542 1542 1544 1545 1547 1546 1545 1549 1549 1549 1548 1549 1548 1547 1546 1545 1544 1541
1511 1511 1511 1510 1512 1514 1514 1517 1518 1519 1520 1523 1523 1524 1526 1528 1530 1530 1532 1536 1536 1539 1539 1540 1541 1541 1541 1542 1543 1543 1541 1542 1545 1547 1546 1544 1545 1544 1542 1540 1539 1538 1536
1509 1510 1510 1510 1512 1512 1513 1516 1516 1517 1518 1521 1520 1522 1524 1526 1528 1528 1531 1532 1535 1535 1537 1540 1539 1539 1540 1539 1539 1540 1540 1541 1542 1542 1541 1540 1538 1539 1536 1535 1534 1532 1531
1507 1508 1509 1510 1513 1514 1514 1514 1515 1516 1517 1519 1519 1522 1523 1524 1526 1526 1528 1530 1531 1532 1536 1539 1537 1536 1536 1536 1536 1536 1535 1535 1537 1536 1537 1538 1536 1535 1533 1530 1528 1526 1526
1508 1508 1508 1510 1511 1511 1512 1513 1513 1515 1516 1517 1518 1520 1519 1524 1524 1526 1526 1529 1529 1531 1534 1534 1536 1535 1531 1532 1533 1534 1533 1531 1531 1531 1531 1531 1531 1530 1528 1526 1524 1522 1521
1506 1508 1509 1510 1511 1512 1512 1512 1512 1514 1515 1515 1517 1518 1519 1523 1524 1525 1524 1526 1527 1528 1530 1531 1532 1533 1531 1529 1530 1528 1528 1528 1527 1528 1528 1526 1527 1524 1523 1521 1519 1518 1515
1505 1507 1508 1508 1509 1509 1510 1511 1513 1514 1515 1516 1518 1519 1521 1522 1523 1524 1525 1525 1525 1527 1529 1529 1529 1528 1528 1527 1526 1525 1525 1525 1525 1523 1524 1524 1522 1520 1517 1516 1515 1513 1511
1504 1505 1506 1507 1508 1509 1510 1511 1512 1512 1513 1515 1517 1518 1519 1521 1523 1523 1524 1524 1525 1525 1526 1526 1527 1526 1525 1524 1525 1522 1521 1520 1519 1522 1521 1522 1518 1517 1514 1513 1510 1507 1506
1503 1504 1505 1506 1507 1508 1509 1510 1511 1513 1514 1515 1516 1516 1517 1520 1521 1522 1522 1522 1522 1522 1524 1525 1524 1523 1523 1522 1522 1521 1518 1517 1517 1518 1516 1517 1515 1512 1511 1508 1505 1503 1501
1502 1502 1503 1504 1506 1506 1507 1508 1509 1510 1511 1512 1513 1514 1516 1517 1519 1519 1519 1520 1521 1521 1521 1522 1522 1520 1520 1520 1520 1518 1517 1516 1515 1513 1513 1511 1509 1508 1506 1504 1501 1498 1495
1499 1500 1500 1501 1502 1503 1504 1505 1506 1507 1508 1510 1511 1512 1514 1515 1517 1517 1518 1518 1517 1517 1518 1518 1518 1518 1519 1518 1517 1515 1514 1512 1513 1510 1507 1505 1504 1503 1501 1500 1497 1494 1491
1495 1496 1496 1497 1498 1499 1500 1501 1502 1503 1504 1506 1507 1508 1510 1511 1512 1512 1513 1512 1513 1514 1514 1515 1516 1515 1515 1514 1513 1512 1511 1510 1508 1506 1503 1500 1502 1498 1497 1495 1492 1492 1488
1490 1490 1491 1492 1493 1494 1495 1496 1497 1498 1499 1501 1502 1503 1505 1506 1506 1507 1507 1507 1508 1510 1512 1511 1512 1509 1510 1509 1510 1509 1507 1505 1504 1504 1502 1501 1499 1497 1494 1491 1490 1488 1484